Weather History for KPKD - February, 2014

Change the Weather History Date:

Monday, February 24, 2014

  Actual Average Record
Temperature  
Mean Temperature -4 °F -  
Max Temperature 7 °F 29 °F 61 °F (1976)
Min Temperature -15 °F 5 °F -30 °F (1965)
Degree Days  
Heating Degree Days 68    
Moisture  
Dew Point -11 °F    
Average Humidity 75    
Maximum Humidity 87    
Minimum Humidity 58    
Precipitation  
Precipitation 0.00 in - - ()
Sea Level Pressure  
Sea Level Pressure 30.37 in    
Wind  
Wind Speed 11 mph (WNW)    
Max Wind Speed 16 mph    
Max Gust Speed -    
Visibility 10 miles    
Events      
Averages and records for this station are not official NWS values.
T = Trace of Precipitation, MM = Missing Value Source: NWS Daily Summary

Daily Weather History Graph

Daily Weather History Graph

Search for Another Location

Airport or City:

Trip Planner

Search our weather history database for the weather conditions in past years. The results will help you decide how hot, cold, wet, or windy it might be!

Date:

Astronomy

Feb. 24, 2014 Rise Set
Actual Time 7:09 AM CST 5:58 PM CST
Civil Twilight 6:38 AM CST 6:29 PM CST
Nautical Twilight 6:03 AM CST 7:04 PM CST
Astronomical Twilight 5:28 AM CST 7:39 PM CST
Moon 3:20 AM CST (2/24) 12:48 PM CST (2/24)
Length of Visible Light 11h 50m
Length of Day
10h 49m
Waning Crescent, 28% of the Moon is Illuminated
Feb 24
Waning Crescent
Mar 1
New
Mar 8
First Quarter
Mar 16
Full
Mar 23
Last Quarter

Hourly Weather History & Observations

Time (CST) Temp. Windchill Dew Point Humidity Pressure Visibility Wind Dir Wind Speed Gust Speed Precip Events Conditions
12:53 AM -5.1 °F -22.5 °F -9.9 °F 80% 30.32 in 10.0 mi WNW 10.4 mph - N/A   Clear
1:53 AM -6.0 °F -23.6 °F -9.9 °F 83% 30.32 in 10.0 mi WNW 10.4 mph - N/A   Clear
2:53 AM -8.0 °F -27.1 °F -11.9 °F 83% 30.33 in 10.0 mi WNW 11.5 mph - N/A   Clear
3:53 AM -9.0 °F -28.4 °F -13.0 °F 83% 30.33 in 10.0 mi WNW 11.5 mph - N/A   Clear
4:53 AM -9.9 °F -27.5 °F -14.1 °F 82% 30.34 in 10.0 mi WNW 9.2 mph - N/A   Clear
5:53 AM -14.1 °F -32.6 °F -17.0 °F 87% 30.36 in 10.0 mi West 9.2 mph - N/A   Clear
6:53 AM -14.1 °F -32.6 °F -17.0 °F 87% 30.35 in 10.0 mi NW 9.2 mph - N/A   Clear
7:53 AM -11.9 °F -33.0 °F -16.1 °F 82% 30.37 in 10.0 mi WNW 12.7 mph - N/A   Clear
8:53 AM -9.0 °F -27.4 °F -14.1 °F 79% 30.37 in 10.0 mi WNW 10.4 mph - N/A   Clear
9:53 AM -5.1 °F -19.1 °F -11.0 °F 76% 30.38 in 10.0 mi NW 6.9 mph - N/A   Clear
10:53 AM -0.9 °F -19.1 °F -9.0 °F 69% 30.39 in 10.0 mi West 12.7 mph - N/A   Clear
11:53 AM 3.9 °F -9.4 °F -7.1 °F 60% 30.38 in 10.0 mi WNW 8.1 mph - N/A   Clear
12:53 PM 6.1 °F -10.2 °F -5.1 °F 60% 30.37 in 10.0 mi West 12.7 mph - N/A   Clear
1:53 PM 7.0 °F -10.4 °F -5.1 °F 58% 30.36 in 10.0 mi WNW 15.0 mph - N/A   Mostly Cloudy
2:53 PM 6.1 °F -11.6 °F -5.1 °F 60% 30.37 in 10.0 mi West 15.0 mph - N/A   Overcast
3:53 PM 3.9 °F -13.7 °F -6.0 °F 64% 30.37 in 10.0 mi WNW 13.8 mph - N/A   Overcast
4:53 PM 3.0 °F -16.1 °F -6.0 °F 66% 30.37 in 10.0 mi WNW 16.1 mph - N/A   Overcast
5:53 PM 1.0 °F -18.0 °F -7.1 °F 69% 30.38 in 10.0 mi WNW 15.0 mph - N/A   Overcast
6:53 PM -2.9 °F -22.4 °F -9.0 °F 75% 30.40 in 10.0 mi WNW 13.8 mph - N/A   Clear
7:53 PM -5.1 °F -23.5 °F -9.9 °F 80% 30.41 in 10.0 mi WNW 11.5 mph - N/A   Clear
8:53 PM -6.0 °F -23.6 °F -11.0 °F 79% 30.41 in 10.0 mi WNW 10.4 mph - N/A   Clear
9:53 PM -7.1 °F -25.0 °F -11.0 °F 83% 30.40 in 10.0 mi West 10.4 mph - N/A   Clear
10:53 PM -9.9 °F -27.5 °F -15.0 °F 78% 30.39 in 10.0 mi West 9.2 mph - N/A   Clear
11:53 PM -15.0 °F -32.4 °F -18.0 °F 86% 30.37 in 10.0 mi West 8.1 mph - N/A   Clear